Theta_e
326 329 329 327 326 325 322 324 324 324 324 323 322 322 323 322 321 321 321 324 324 322 322 322 322 322 321 321 320 320 320 319 319 317 317 316 316 315 315 315 315 314 314
325 325 325 324 322 322 322 324 325 324 323 322 321 321 322 321 321 320 321 322 322 321 322 322 322 321 320 320 321 320 320 319 318 317 316 316 315 315 315 314 313 313 313
324 324 323 322 321 324 324 324 323 321 320 320 319 320 321 321 321 320 320 320 320 322 322 322 323 319 320 321 321 319 319 318 316 317 316 315 314 313 312 312 311 311 310
324 324 323 321 319 323 324 323 321 319 319 319 320 320 320 321 321 321 320 320 320 321 322 322 320 321 320 320 319 319 318 317 317 315 314 314 312 311 310 310 309 309 307
323 322 323 322 323 323 320 319 318 319 319 320 320 320 319 319 320 320 320 319 320 321 322 321 320 319 318 318 318 317 317 316 316 315 314 312 310 309 307 305 304 302 301
321 321 322 321 319 319 318 319 319 320 317 317 317 317 318 318 318 319 319 319 320 320 319 319 317 317 317 316 316 316 316 315 314 313 310 308 305 301 297 296 295 296 297
321 320 320 319 319 319 319 318 317 317 317 316 316 317 318 318 318 319 320 320 320 317 317 316 316 316 316 316 316 315 314 311 308 302 298 297 296 295 294 293 293 293 293
321 320 320 320 319 318 317 317 317 316 317 317 318 319 319 318 319 319 320 318 316 316 316 316 314 312 311 311 312 311 305 298 297 297 296 293 291 291 291 291 291 290 291
321 320 320 319 317 317 317 316 316 317 317 317 318 318 319 318 319 318 317 315 315 313 312 311 306 300 299 299 300 301 299 297 292 291 291 291 291 291 291 290 290 290 290
320 319 317 316 316 316 317 317 317 317 317 317 318 317 317 316 316 316 315 313 312 312 306 298 299 300 299 298 299 298 294 291 291 291 291 291 290 290 290 289 289 288 289
319 316 315 315 316 317 317 317 317 318 317 316 317 316 316 315 315 315 313 312 305 300 301 300 300 299 298 297 294 292 292 291 291 291 290 290 289 289 289 288 288 287 287
317 316 316 316 317 316 316 316 316 316 316 315 315 314 314 313 313 312 307 301 301 303 302 301 299 297 295 292 291 292 291 291 291 290 290 289 289 288 288 287 287 286 285
316 316 316 316 316 317 317 315 315 316 315 316 315 312 311 310 309 301 299 301 302 303 301 299 297 295 291 291 292 291 291 290 290 290 289 289 288 287 287 286 285 284 284
316 316 316 316 315 315 316 316 316 316 315 315 313 312 311 309 300 298 301 302 302 301 299 297 293 291 291 292 291 291 290 290 289 289 289 288 288 287 286 286 285 285 284
316 316 316 316 315 314 315 316 317 316 315 315 313 311 310 300 298 301 302 302 300 298 297 292 291 291 292 291 291 290 290 289 289 289 289 288 287 286 286 285 285 284 284
316 315 315 315 313 315 315 315 316 315 314 312 311 310 300 298 300 301 301 300 298 297 292 292 291 291 292 291 290 290 289 289 289 289 288 288 287 286 285 285 285 284 284
315 315 314 314 314 314 315 315 313 311 310 311 310 302 298 301 302 301 299 298 296 293 292 291 292 292 291 291 290 290 290 289 289 289 288 287 286 286 285 285 285 285 284
316 315 315 314 315 315 314 313 312 311 310 308 303 297 300 302 302 300 299 297 294 291 291 291 292 292 291 291 290 290 290 289 289 289 288 287 286 286 285 285 285 285 284
315 315 315 315 315 314 313 312 311 310 309 305 296 298 300 301 300 299 297 296 294 292 291 291 292 292 291 291 290 290 290 289 289 288 288 287 286 285 285 285 284 285 285
315 315 315 314 314 313 312 311 310 309 307 298 297 299 301 301 300 297 295 294 293 291 291 291 292 291 291 291 290 290 290 289 289 288 288 287 286 285 285 285 284 285 285
314 314 315 314 314 312 311 310 310 308 303 298 299 300 302 302 299 296 295 293 292 292 291 291 292 292 291 291 290 290 290 289 289 288 288 287 286 285 285 285 284 284 285
314 314 314 314 313 312 311 311 311 308 303 298 298 300 301 301 299 297 294 293 292 291 291 291 292 291 291 291 290 290 290 289 289 288 288 287 286 286 285 285 285 284 284
312 313 313 313 313 313 311 311 310 309 304 299 297 300 301 301 301 300 297 294 292 292 291 291 292 292 292 291 290 290 290 289 289 288 288 287 286 286 285 285 285 285 284
311 313 313 312 312 312 310 310 310 309 306 300 297 299 302 302 302 301 300 298 294 292 291 291 292 292 292 291 291 290 290 290 289 288 288 287 286 286 286 285 285 285 285
310 312 312 311 310 310 310 310 309 309 306 300 297 297 301 302 302 301 301 300 299 295 292 291 292 292 292 291 291 291 290 290 289 289 288 287 286 286 286 286 286 286 286
308 310 312 310 309 309 309 308 309 307 302 299 297 296 297 302 302 302 301 300 299 300 296 291 291 292 292 291 291 291 290 290 290 289 288 287 286 286 286 286 286 286 286
Wind_Speed
4 12 19 18 14 10 15 18 19 17 15 14 13 14 11 13 10 9 5 8 12 11 8 6 5 4 3 6 2 1 1 2 5 6 6 6 6 5 5 6 9 10 11
6 6 9 12 11 16 16 23 21 16 15 15 14 13 15 13 11 10 6 6 9 10 7 5 4 2 3 3 5 3 4 3 5 9 7 6 6 5 6 5 5 8 9
7 6 7 8 6 18 21 23 17 16 16 14 15 16 17 14 14 12 10 7 5 5 7 6 4 4 3 3 4 5 5 5 9 5 7 5 3 2 4 5 5 6 7
11 8 9 12 10 20 20 20 19 15 15 15 15 15 15 14 14 13 11 9 7 5 7 6 6 4 3 3 4 1 5 6 8 8 6 5 2 1 1 1 1 3 6
15 11 13 13 19 21 19 16 16 15 14 17 17 16 15 16 15 13 11 9 7 9 9 6 4 2 1 2 8 10 10 9 8 6 5 4 2 1 2 2 3 3 4
15 13 19 20 18 18 15 13 13 13 11 10 11 12 15 17 15 14 13 11 9 8 6 5 7 9 12 15 14 13 9 5 7 6 6 4 3 2 3 4 4 4 4
21 21 19 17 17 15 13 12 11 11 13 14 14 13 14 17 17 18 16 13 12 14 16 18 18 16 12 11 10 8 8 8 6 6 6 6 5 4 4 4 3 3 3
26 23 20 19 16 13 14 15 15 15 16 17 15 15 13 18 16 17 20 19 22 23 20 16 16 17 14 9 8 9 11 12 11 9 8 9 8 8 7 7 7 7 7
26 22 21 18 15 15 17 17 19 19 20 20 16 17 19 19 20 21 25 26 25 23 20 16 15 15 15 11 9 11 12 14 12 12 13 14 13 13 13 11 10 9 8
31 25 21 16 14 20 19 22 22 21 22 22 23 24 26 28 24 24 23 22 23 22 20 18 14 14 15 12 9 11 12 16 14 13 14 14 14 13 12 12 13 11 9
32 24 20 18 21 21 22 22 23 23 25 26 26 30 29 25 24 21 19 19 18 20 18 19 17 12 12 12 12 12 15 15 14 13 14 14 14 14 15 15 15 14 12
29 25 23 23 22 24 23 23 24 26 29 35 34 33 30 27 23 20 17 17 17 16 18 17 16 13 13 12 12 14 16 14 14 14 14 15 16 17 18 18 19 18 16
32 28 27 24 24 26 26 29 34 36 38 38 36 34 30 27 25 21 20 18 16 16 17 16 16 14 12 14 15 15 15 14 14 15 17 18 18 18 16 16 16 16 15
32 31 29 27 28 29 31 36 36 36 35 35 34 31 30 29 26 23 20 17 15 15 17 17 16 15 15 16 16 15 15 16 16 17 17 17 17 16 18 18 18 19 18
33 33 30 29 30 33 34 33 32 29 28 31 27 26 29 28 24 18 15 16 16 16 16 17 17 16 17 16 15 16 16 17 16 17 16 16 17 17 18 19 21 20 19
34 33 32 32 35 36 39 38 33 26 24 17 17 23 25 25 23 19 17 16 16 15 16 18 19 17 16 16 15 16 17 16 16 16 16 16 16 17 18 19 20 21 19
36 34 33 34 34 37 36 34 35 31 24 18 22 23 23 23 20 19 17 17 16 16 15 18 18 17 16 16 15 15 16 15 15 15 15 16 16 17 18 20 20 20 19
33 33 34 35 35 34 35 37 36 36 31 28 22 23 22 20 18 17 16 16 19 17 15 17 17 17 16 15 15 14 14 14 14 14 15 15 16 17 18 20 20 19 20
33 33 32 35 34 34 39 36 34 33 33 32 31 26 21 20 19 17 16 12 16 18 18 18 16 16 15 14 14 14 13 13 14 14 14 15 15 16 17 18 18 18 19
31 31 31 35 38 42 38 35 33 33 35 35 33 30 27 23 20 19 17 17 17 17 17 16 16 15 14 13 13 13 12 12 13 13 14 14 15 15 17 18 18 18 19
31 28 29 34 42 39 36 33 25 31 33 33 33 29 23 20 19 17 17 17 16 16 16 15 15 14 13 12 11 11 11 11 12 12 13 13 14 15 16 17 17 17 17
26 28 30 34 39 36 34 29 23 28 29 29 29 27 24 20 18 18 17 16 17 16 15 14 14 13 12 11 10 11 11 11 11 11 12 12 13 14 15 16 17 17 16
23 27 29 32 36 34 31 27 24 26 28 28 29 28 26 23 20 18 16 15 15 15 15 14 13 12 12 10 10 10 10 10 10 10 11 11 12 13 14 15 16 17 18
19 28 30 29 30 31 30 28 26 26 27 28 28 28 26 24 21 19 17 15 14 14 14 13 13 12 10 10 9 9 9 10 9 10 10 10 11 12 13 14 15 16 17
15 27 29 27 30 31 29 28 27 28 29 29 29 29 27 25 22 20 17 15 13 12 12 12 12 12 11 9 9 8 9 9 9 9 9 10 10 11 12 13 14 15 16
6 21 29 27 27 29 29 29 28 28 30 29 29 29 28 27 24 21 18 16 14 12 10 11 12 11 10 9 8 8 8 8 9 9 9 9 9 10 11 13 13 14 15
Wind_Direction
110 169 176 183 176 192 185 220 209 199 195 186 185 197 189 187 196 196 205 176 173 167 164 155 148 152 169 242 236 247 286 294 224 169 173 173 186 195 234 258 258 260 251
107 123 167 183 205 214 218 208 192 186 194 191 186 192 185 194 196 188 182 157 169 175 168 161 148 176 254 243 265 285 258 243 171 163 149 171 201 222 237 252 243 243 245
196 193 206 188 179 214 196 183 183 186 188 181 182 174 178 192 186 187 193 201 199 232 192 167 186 239 265 266 235 295 262 200 157 138 138 166 167 212 239 236 230 235 252
213 218 225 215 219 199 183 183 183 186 183 185 186 185 182 192 192 192 198 202 206 222 172 191 234 243 261 255 280 190 148 160 140 132 128 153 160 242 268 247 259 266 277
211 221 204 193 184 177 168 175 189 189 198 209 205 197 195 196 197 201 199 193 200 175 178 201 207 214 260 170 132 121 128 136 143 137 139 128 106 266 259 306 320 308 310
205 194 172 154 163 174 180 187 197 188 192 194 187 186 194 194 189 191 189 190 174 170 150 136 119 117 128 127 129 131 130 114 128 124 122 119 108 54 359 339 322 310 311
192 181 179 179 180 180 192 186 163 161 157 148 141 149 165 183 189 196 186 169 152 128 115 114 111 103 105 119 125 132 128 116 112 92 80 82 66 45 17 2 359 352 347
181 178 180 180 185 184 173 160 153 147 148 146 143 147 158 170 180 186 158 144 130 120 119 123 118 111 101 103 115 119 110 100 87 80 74 73 60 51 44 39 27 16 4
190 182 183 185 183 175 166 159 153 151 143 139 141 153 140 144 144 141 145 136 130 125 122 119 115 109 101 90 97 102 101 89 78 67 61 58 54 49 46 42 42 37 18
194 185 179 182 191 170 165 159 159 154 144 138 129 129 132 130 133 139 136 133 126 129 127 118 111 110 109 101 94 89 93 87 75 72 69 66 60 58 54 49 43 35 25
187 176 168 177 175 169 166 165 162 155 145 148 137 132 127 127 130 131 134 130 127 130 128 123 114 108 108 103 91 90 84 82 80 76 72 68 62 54 48 41 33 27 24
176 172 169 179 169 168 166 162 158 152 149 139 134 131 129 128 128 132 132 128 129 131 126 123 122 119 103 96 98 87 84 84 82 80 76 69 58 49 41 33 25 17 10
172 172 172 177 173 169 164 155 147 145 144 141 140 136 134 136 135 136 138 132 129 129 127 124 119 111 109 108 97 94 93 90 86 80 70 61 53 48 39 31 25 26 28
172 172 173 175 172 169 161 155 150 150 149 150 148 144 145 145 144 146 143 138 138 132 124 119 117 118 118 108 103 101 96 90 81 72 66 60 53 43 36 34 32 31 31
172 171 173 174 171 164 160 156 155 159 159 153 153 151 149 147 144 138 131 131 130 123 126 124 125 123 115 110 108 104 95 88 77 71 65 58 48 42 39 36 35 33 31
171 170 175 172 169 164 162 160 157 148 145 137 142 147 145 142 139 139 136 132 128 126 133 130 127 121 119 115 111 103 96 87 77 69 61 54 47 43 40 39 36 35 31
169 173 172 171 166 163 163 159 150 143 138 138 146 152 151 144 142 141 139 136 132 130 136 132 127 128 123 118 111 102 95 86 75 66 57 51 46 42 40 40 38 37 34
171 173 170 166 163 163 162 152 151 148 148 146 151 154 152 146 144 143 144 147 140 137 140 133 133 130 125 119 111 102 94 85 74 62 55 51 45 42 41 40 38 39 38
170 167 166 162 163 162 156 158 158 158 157 151 151 156 153 149 142 140 139 148 144 144 143 139 137 132 127 121 110 103 95 84 72 60 53 49 44 42 43 43 42 42 40
173 169 168 167 162 159 161 163 162 166 162 158 158 160 159 159 152 149 147 147 149 146 142 143 140 134 130 122 111 103 95 83 70 59 53 50 45 43 43 43 42 40 41
170 169 168 165 163 162 165 163 164 170 169 165 164 163 157 153 149 147 144 145 148 145 144 145 141 137 132 122 112 103 95 83 70 60 54 50 47 44 44 43 43 43 42
171 168 168 166 166 166 166 163 173 174 173 170 166 162 156 154 150 144 143 145 145 144 144 144 143 138 133 124 113 104 97 85 71 60 54 51 48 44 45 44 44 43 41
173 168 168 169 171 171 169 169 178 175 175 174 173 166 160 159 155 148 143 140 142 145 147 147 146 142 135 128 119 110 102 87 74 62 56 52 49 46 46 46 45 43 40
173 168 169 171 174 174 171 176 181 178 178 177 177 172 167 164 161 156 150 142 138 143 148 150 147 145 140 132 122 113 103 90 76 63 58 54 50 48 46 46 46 44 42
169 172 171 175 175 176 178 184 183 181 181 180 178 178 176 172 170 167 160 154 145 137 146 151 151 149 147 140 127 116 105 92 76 62 57 55 51 49 46 47 47 45 45
154 175 175 177 178 181 185 184 183 183 183 181 181 183 185 184 179 177 173 168 161 151 145 152 155 156 153 148 138 125 110 95 78 64 57 54 50 46 44 43 44 43 42